AAL2611 KDCA-KSAV

Flight info

Callsign AAL2611
Flight time 1h 13m
Altitude 36000
Route JDUBB4 RRSIN GSO CTF CANTR PLZZZ
Aircraft A319/M-SDE3FGHIRWY/LB1

Departure

Time 2026-05-05 14:42
Airport Ronald Reagan Washington National Airport (KDCA)

Arrival

Time 2026-05-05 15:56
Airport Savannah Hilton Head International Airport (KSAV)
Time Latitude Longitude Altitude Speed Heading
2026-05-05 14:22 38.85473 -77.04145 24 ft 0 kts 170°
2026-05-05 14:34 38.85492 -77.04147 26 ft 4 kts 194°
2026-05-05 14:34 38.85512 -77.04139 24 ft 4 kts 181°
2026-05-05 14:34 38.85522 -77.04145 24 ft 4 kts 84°
2026-05-05 14:35 38.85517 -77.04173 24 ft 1 kts 72°
2026-05-05 14:35 38.85516 -77.04173 24 ft 0 kts 72°
2026-05-05 14:38 38.85517 -77.04173 24 ft 1 kts 72°
2026-05-05 14:38 38.85521 -77.04156 24 ft 3 kts 72°
2026-05-05 14:38 38.85531 -77.04115 26 ft 6 kts 72°
2026-05-05 14:38 38.85547 -77.04051 26 ft 9 kts 73°
2026-05-05 14:39 38.85569 -77.03972 24 ft 10 kts 51°
2026-05-05 14:39 38.85639 -77.03965 25 ft 11 kts 355°
2026-05-05 14:39 38.85717 -77.03973 30 ft 11 kts 355°
2026-05-05 14:39 38.85801 -77.03982 30 ft 13 kts 355°
2026-05-05 14:40 38.85898 -77.03990 25 ft 15 kts
2026-05-05 14:40 38.86000 -77.03959 26 ft 10 kts 14°
2026-05-05 14:40 38.86007 -77.03957 24 ft 1 kts 14°
2026-05-05 14:40 38.86035 -77.03948 25 ft 8 kts 15°
2026-05-05 14:41 38.86107 -77.03906 25 ft 13 kts 56°
2026-05-05 14:41 38.86079 -77.03866 24 ft 3 kts 176°
2026-05-05 14:41 38.85938 -77.03854 28 ft 48 kts 176°
2026-05-05 14:41 38.85395 -77.03800 24 ft 108 kts 175°
2026-05-05 14:42 38.84483 -77.03710 180 ft 142 kts 175°
2026-05-05 14:42 38.83521 -77.03615 872 ft 138 kts 177°
2026-05-05 14:42 38.82568 -77.03583 1454 ft 138 kts 185°
2026-05-05 14:42 38.82242 -77.03579 1666 ft 139 kts 185°
2026-05-05 14:43 38.82174 -77.03579 1693 ft 140 kts 186°
2026-05-05 14:43 38.81132 -77.03571 2032 ft 160 kts 184°
2026-05-05 14:43 38.79941 -77.03563 2297 ft 182 kts 185°
2026-05-05 14:43 38.79329 -77.03559 2428 ft 194 kts 184°
2026-05-05 14:44 38.78836 -77.03553 2544 ft 200 kts 184°
2026-05-05 14:44 38.77347 -77.03534 2845 ft 227 kts 183°
2026-05-05 14:44 38.75741 -77.03912 3266 ft 245 kts 212°
2026-05-05 14:44 38.74600 -77.05524 3935 ft 252 kts 249°
2026-05-05 14:45 38.74215 -77.07714 4893 ft 254 kts 264°
2026-05-05 14:45 38.74154 -77.09216 5565 ft 255 kts 267°
2026-05-05 14:45 38.74153 -77.11493 6565 ft 256 kts 266°
2026-05-05 14:45 38.73768 -77.14478 7795 ft 254 kts 248°
2026-05-05 14:46 38.73338 -77.15871 8446 ft 254 kts 245°
2026-05-05 14:46 38.72622 -77.17935 9410 ft 255 kts 243°
2026-05-05 14:46 38.71867 -77.19985 9961 ft 255 kts 243°
2026-05-05 14:46 38.70975 -77.22015 10397 ft 273 kts 233°
2026-05-05 14:47 38.69635 -77.23871 10654 ft 296 kts 222°
2026-05-05 14:47 38.68021 -77.25585 11197 ft 305 kts 221°
2026-05-05 14:47 38.66388 -77.27357 11919 ft 310 kts 222°
2026-05-05 14:47 38.64740 -77.29170 12596 ft 315 kts 222°
2026-05-05 14:48 38.63067 -77.31020 13265 ft 320 kts 223°
2026-05-05 14:48 38.61369 -77.32898 13943 ft 325 kts 223°
2026-05-05 14:48 38.59649 -77.34801 14549 ft 329 kts 223°
2026-05-05 14:48 38.57911 -77.36717 15164 ft 332 kts 223°
2026-05-05 14:49 38.56148 -77.38661 15777 ft 336 kts 223°
2026-05-05 14:49 38.54364 -77.40623 16395 ft 340 kts 224°
2026-05-05 14:49 38.52563 -77.42600 17003 ft 344 kts 224°
2026-05-05 14:49 38.50734 -77.44603 17620 ft 348 kts 224°
2026-05-05 14:50 38.48887 -77.46623 18226 ft 352 kts 224°
2026-05-05 14:50 38.47021 -77.48664 18769 ft 356 kts 224°
2026-05-05 14:50 38.45129 -77.50733 19276 ft 360 kts 224°
2026-05-05 14:50 38.43582 -77.52427 19695 ft 364 kts 224°
2026-05-05 14:51 38.42481 -77.53634 19985 ft 366 kts 224°
2026-05-05 14:51 38.40537 -77.55764 20515 ft 370 kts 224°
2026-05-05 14:51 38.38452 -77.57754 21025 ft 378 kts 218°
2026-05-05 14:52 38.36261 -77.59627 21543 ft 382 kts 218°
2026-05-05 14:52 38.34040 -77.61525 21986 ft 387 kts 218°
2026-05-05 14:52 38.31789 -77.63449 22447 ft 391 kts 218°
2026-05-05 14:52 38.29554 -77.65454 22908 ft 393 kts 223°
2026-05-05 14:53 38.27458 -77.67710 23370 ft 397 kts 224°
2026-05-05 14:53 38.25345 -77.69987 23778 ft 401 kts 224°
2026-05-05 14:53 38.23201 -77.72286 24146 ft 404 kts 224°
2026-05-05 14:53 38.21043 -77.74594 24530 ft 407 kts 224°
2026-05-05 14:54 38.18865 -77.76918 24916 ft 411 kts 224°
2026-05-05 14:54 38.16665 -77.79268 25284 ft 414 kts 224°
2026-05-05 14:54 38.14482 -77.81599 25660 ft 417 kts 224°
2026-05-05 14:54 38.12224 -77.84012 26039 ft 420 kts 224°
2026-05-05 14:55 38.09978 -77.86413 26412 ft 424 kts 224°
2026-05-05 14:55 38.07709 -77.88833 26789 ft 427 kts 224°
2026-05-05 14:55 38.05428 -77.91263 27150 ft 430 kts 224°
2026-05-05 14:55 38.03161 -77.93680 27499 ft 433 kts 224°
2026-05-05 14:56 38.00843 -77.96151 27840 ft 436 kts 224°
2026-05-05 14:56 37.98511 -77.98632 28198 ft 439 kts 224°
2026-05-05 14:56 37.96160 -78.01126 28536 ft 442 kts 224°
2026-05-05 14:56 37.93794 -78.03630 28883 ft 445 kts 224°
2026-05-05 14:57 37.91413 -78.06149 29218 ft 448 kts 224°
2026-05-05 14:57 37.89016 -78.08681 29546 ft 450 kts 224°
2026-05-05 14:57 37.86603 -78.11229 29865 ft 453 kts 224°
2026-05-05 14:57 37.84182 -78.13785 30168 ft 456 kts 225°
2026-05-05 14:58 37.81735 -78.16372 30437 ft 458 kts 225°
2026-05-05 14:58 37.79287 -78.18959 30711 ft 460 kts 225°
2026-05-05 14:58 37.76832 -78.21550 31071 ft 460 kts 225°
2026-05-05 14:58 37.74377 -78.24139 31465 ft 459 kts 225°
2026-05-05 14:59 37.71933 -78.26713 31843 ft 458 kts 225°
2026-05-05 14:59 37.69481 -78.29290 32243 ft 458 kts 225°
2026-05-05 14:59 37.67027 -78.31863 32629 ft 457 kts 225°
2026-05-05 14:59 37.64583 -78.34427 33019 ft 457 kts 225°
2026-05-05 15:00 37.62138 -78.36993 33407 ft 456 kts 225°
2026-05-05 15:00 37.60526 -78.38686 33664 ft 456 kts 225°
2026-05-05 15:00 37.57265 -78.42107 34174 ft 456 kts 225°
2026-05-05 15:00 37.54824 -78.44662 34532 ft 455 kts 225°
2026-05-05 15:01 37.52394 -78.47198 34918 ft 454 kts 225°
2026-05-05 15:01 37.49963 -78.49727 35292 ft 452 kts 225°
2026-05-05 15:01 37.47549 -78.52240 35663 ft 451 kts 225°
2026-05-05 15:01 37.45131 -78.54759 35975 ft 450 kts 225°
2026-05-05 15:02 37.40306 -78.59755 36053 ft 448 kts 225°
2026-05-05 15:02 37.35480 -78.64711 36053 ft 448 kts 225°
2026-05-05 15:03 37.30691 -78.69631 36041 ft 447 kts 225°
2026-05-05 15:03 37.25887 -78.74570 36048 ft 446 kts 225°
2026-05-05 15:04 37.21088 -78.79496 36049 ft 446 kts 225°
2026-05-05 15:04 37.16270 -78.84428 36030 ft 446 kts 225°
2026-05-05 15:05 37.09052 -78.91811 36039 ft 447 kts 225°
2026-05-05 15:06 37.04227 -78.96727 36038 ft 447 kts 225°
2026-05-05 15:06 36.99400 -79.01632 36040 ft 447 kts 225°
2026-05-05 15:07 36.94577 -79.06537 36016 ft 447 kts 226°
2026-05-05 15:07 36.89769 -79.11467 36031 ft 446 kts 226°
2026-05-05 15:08 36.84977 -79.16395 36043 ft 446 kts 226°
2026-05-05 15:08 36.80179 -79.21314 36060 ft 446 kts 226°
2026-05-05 15:09 36.75384 -79.26217 36067 ft 446 kts 226°
2026-05-05 15:09 36.70576 -79.31116 36059 ft 447 kts 226°
2026-05-05 15:10 36.65750 -79.36022 36070 ft 448 kts 226°
2026-05-05 15:10 36.60927 -79.40929 36077 ft 448 kts 226°
2026-05-05 15:11 36.56094 -79.45837 36036 ft 449 kts 227°
2026-05-05 15:11 36.51249 -79.50739 36028 ft 449 kts 227°
2026-05-05 15:12 36.46399 -79.55650 36036 ft 450 kts 227°
2026-05-05 15:12 36.41542 -79.60556 36042 ft 450 kts 227°
2026-05-05 15:13 36.36685 -79.65462 36052 ft 450 kts 227°
2026-05-05 15:13 36.31814 -79.70369 36076 ft 451 kts 227°
2026-05-05 15:14 36.26940 -79.75257 36060 ft 451 kts 227°
2026-05-05 15:14 36.22055 -79.80155 36052 ft 452 kts 228°
2026-05-05 15:15 36.17158 -79.85056 36071 ft 453 kts 228°
2026-05-05 15:15 36.12253 -79.89964 36071 ft 454 kts 228°
2026-05-05 15:16 36.07274 -79.94812 36059 ft 461 kts 223°
2026-05-05 15:16 36.04454 -79.96783 36065 ft 473 kts 213°
2026-05-05 15:16 36.01332 -79.98220 36066 ft 485 kts 203°
2026-05-05 15:17 35.94628 -79.99796 36067 ft 492 kts 197°
2026-05-05 15:17 35.87868 -80.01255 36068 ft 493 kts 197°
2026-05-05 15:18 35.81115 -80.02729 36085 ft 494 kts 197°
2026-05-05 15:18 35.74385 -80.04188 36100 ft 495 kts 197°
2026-05-05 15:19 35.67595 -80.05651 36106 ft 495 kts 197°
2026-05-05 15:19 35.60804 -80.07117 36109 ft 496 kts 197°
2026-05-05 15:20 35.54017 -80.08582 36124 ft 496 kts 197°
2026-05-05 15:20 35.47214 -80.10040 36152 ft 496 kts 197°
2026-05-05 15:21 35.40409 -80.11490 36153 ft 496 kts 197°
2026-05-05 15:21 35.33601 -80.12952 36118 ft 497 kts 197°
2026-05-05 15:22 35.26795 -80.14413 36118 ft 498 kts 197°
2026-05-05 15:22 35.19964 -80.15869 36109 ft 499 kts 197°
2026-05-05 15:23 35.13124 -80.17321 36097 ft 499 kts 198°
2026-05-05 15:23 35.06274 -80.18775 36092 ft 500 kts 198°
2026-05-05 15:24 34.99419 -80.20234 36099 ft 501 kts 198°
2026-05-05 15:24 34.92549 -80.21692 36105 ft 501 kts 198°
2026-05-05 15:25 34.85674 -80.23145 36108 ft 502 kts 198°
2026-05-05 15:25 34.78784 -80.24597 36106 ft 503 kts 198°
2026-05-05 15:26 34.71882 -80.26057 36116 ft 504 kts 198°
2026-05-05 15:26 34.65124 -80.27943 36117 ft 490 kts 210°
2026-05-05 15:26 34.62027 -80.29556 36120 ft 479 kts 218°
2026-05-05 15:27 34.59128 -80.31509 36094 ft 475 kts 220°
2026-05-05 15:27 34.53398 -80.35403 36101 ft 476 kts 219°
2026-05-05 15:28 34.47567 -80.39321 36103 ft 477 kts 219°
2026-05-05 15:28 34.41798 -80.43187 36125 ft 477 kts 219°
2026-05-05 15:29 34.35995 -80.47088 36106 ft 477 kts 219°
2026-05-05 15:29 34.30200 -80.50996 36117 ft 477 kts 219°
2026-05-05 15:30 34.24393 -80.54896 36105 ft 477 kts 220°
2026-05-05 15:30 34.18584 -80.58791 36118 ft 477 kts 220°
2026-05-05 15:31 34.12779 -80.62674 36093 ft 477 kts 220°
2026-05-05 15:31 34.06955 -80.66561 35999 ft 480 kts 220°
2026-05-05 15:31 34.04044 -80.68507 35755 ft 479 kts 220°
2026-05-05 15:32 34.01127 -80.70451 35519 ft 480 kts 220°
2026-05-05 15:32 33.98198 -80.72399 35273 ft 480 kts 220°
2026-05-05 15:32 33.96221 -80.73713 35111 ft 480 kts 220°
2026-05-05 15:32 33.93333 -80.75629 34876 ft 481 kts 220°
2026-05-05 15:33 33.90362 -80.77602 34638 ft 481 kts 220°
2026-05-05 15:33 33.87434 -80.79546 34404 ft 481 kts 220°
2026-05-05 15:33 33.84492 -80.81499 33517 ft 486 kts 220°
2026-05-05 15:33 33.81508 -80.83488 32497 ft 493 kts 219°
2026-05-05 15:34 33.78498 -80.85493 31465 ft 498 kts 218°
2026-05-05 15:34 33.75517 -80.87465 30752 ft 493 kts 217°
2026-05-05 15:34 33.72526 -80.89429 29942 ft 488 kts 216°
2026-05-05 15:34 33.69565 -80.91368 29164 ft 481 kts 216°
2026-05-05 15:35 33.66653 -80.93267 28558 ft 471 kts 216°
2026-05-05 15:35 33.63808 -80.95130 27919 ft 462 kts 215°
2026-05-05 15:35 33.60081 -80.97583 27080 ft 451 kts 215°
2026-05-05 15:35 33.58274 -80.98777 26681 ft 447 kts 215°
2026-05-05 15:36 33.55570 -81.00569 26069 ft 442 kts 215°
2026-05-05 15:36 33.52893 -81.02344 25473 ft 438 kts 214°
2026-05-05 15:36 33.50245 -81.04097 24888 ft 433 kts 214°
2026-05-05 15:36 33.47617 -81.05829 24307 ft 429 kts 213°
2026-05-05 15:37 33.45010 -81.07536 23740 ft 424 kts 213°
2026-05-05 15:37 33.42446 -81.09211 23136 ft 417 kts 213°
2026-05-05 15:37 33.39902 -81.10839 22613 ft 412 kts 209°
2026-05-05 15:37 33.37248 -81.12071 22180 ft 408 kts 200°
2026-05-05 15:38 33.34489 -81.12805 21715 ft 406 kts 192°
2026-05-05 15:38 33.31689 -81.13212 21267 ft 402 kts 191°
2026-05-05 15:38 33.28939 -81.13609 20823 ft 397 kts 191°
2026-05-05 15:38 33.26215 -81.14010 20372 ft 392 kts 191°
2026-05-05 15:39 33.23527 -81.14410 19911 ft 387 kts 191°
2026-05-05 15:39 33.20868 -81.14808 19453 ft 383 kts 191°
2026-05-05 15:39 33.18244 -81.15199 18989 ft 379 kts 190°
2026-05-05 15:39 33.15639 -81.15583 18515 ft 375 kts 190°
2026-05-05 15:40 33.13061 -81.15963 17993 ft 371 kts 190°
2026-05-05 15:40 33.10513 -81.16338 17511 ft 366 kts 190°
2026-05-05 15:40 33.08001 -81.16707 17033 ft 362 kts 189°
2026-05-05 15:40 33.05523 -81.17071 16561 ft 357 kts 189°
2026-05-05 15:41 33.03061 -81.17436 15988 ft 356 kts 189°
2026-05-05 15:41 33.00615 -81.17799 15483 ft 353 kts 189°
2026-05-05 15:41 32.98181 -81.18157 14995 ft 350 kts 189°
2026-05-05 15:41 32.95778 -81.18508 14532 ft 346 kts 189°
2026-05-05 15:42 32.93406 -81.18854 14056 ft 343 kts 189°
2026-05-05 15:42 32.91047 -81.19199 13549 ft 340 kts 188°
2026-05-05 15:42 32.88720 -81.19539 13074 ft 335 kts 188°
2026-05-05 15:42 32.86419 -81.19875 12610 ft 330 kts 188°
2026-05-05 15:43 32.84156 -81.20207 12142 ft 327 kts 188°
2026-05-05 15:43 32.81908 -81.20539 11693 ft 323 kts 188°
2026-05-05 15:43 32.79720 -81.20861 11242 ft 320 kts 188°
2026-05-05 15:43 32.77493 -81.21187 10787 ft 317 kts 188°
2026-05-05 15:44 32.75351 -81.21499 10520 ft 309 kts 187°
2026-05-05 15:44 32.73260 -81.21781 10397 ft 296 kts 184°
2026-05-05 15:44 32.71242 -81.21756 10242 ft 286 kts 179°
2026-05-05 15:44 32.69267 -81.21666 9982 ft 281 kts 179°
2026-05-05 15:45 32.67324 -81.21582 9820 ft 278 kts 179°
2026-05-05 15:45 32.65396 -81.21499 9699 ft 277 kts 179°
2026-05-05 15:45 32.63464 -81.21419 9446 ft 277 kts 179°
2026-05-05 15:45 32.61544 -81.21344 9114 ft 276 kts 179°
2026-05-05 15:46 32.59629 -81.21267 8758 ft 275 kts 178°
2026-05-05 15:46 32.57723 -81.21187 8401 ft 274 kts 178°
2026-05-05 15:46 32.55820 -81.21106 8051 ft 273 kts 178°
2026-05-05 15:46 32.53926 -81.21025 7692 ft 272 kts 178°
2026-05-05 15:47 32.52038 -81.20945 7350 ft 271 kts 178°
2026-05-05 15:47 32.50793 -81.20894 7122 ft 270 kts 178°
2026-05-05 15:47 32.48282 -81.20792 6660 ft 270 kts 178°
2026-05-05 15:47 32.46408 -81.20715 6299 ft 269 kts 178°
2026-05-05 15:48 32.44553 -81.20637 5940 ft 264 kts 178°
2026-05-05 15:48 32.42747 -81.20559 5604 ft 255 kts 178°
2026-05-05 15:48 32.40999 -81.20483 5276 ft 248 kts 178°
2026-05-05 15:48 32.39301 -81.20410 4965 ft 240 kts 178°
2026-05-05 15:49 32.37665 -81.20342 4650 ft 231 kts 178°
2026-05-05 15:49 32.36093 -81.20278 4356 ft 222 kts 178°
2026-05-05 15:49 32.34580 -81.20213 4071 ft 213 kts 178°
2026-05-05 15:49 32.33108 -81.20154 3814 ft 212 kts 178°
2026-05-05 15:50 32.31645 -81.20125 3541 ft 207 kts 179°
2026-05-05 15:50 32.30225 -81.20114 3274 ft 201 kts 179°
2026-05-05 15:50 32.28840 -81.20106 3022 ft 196 kts 179°
2026-05-05 15:50 32.27489 -81.20101 2768 ft 192 kts 180°
2026-05-05 15:51 32.26174 -81.20098 2520 ft 186 kts 179°
2026-05-05 15:51 32.24882 -81.20089 2323 ft 180 kts 179°
2026-05-05 15:51 32.23652 -81.20084 2042 ft 174 kts 179°
2026-05-05 15:51 32.22489 -81.20080 1826 ft 162 kts 179°
2026-05-05 15:52 32.21419 -81.20075 1610 ft 142 kts 178°
2026-05-05 15:52 32.20479 -81.20064 1391 ft 133 kts 179°
2026-05-05 15:52 32.19557 -81.20061 1249 ft 129 kts 180°
2026-05-05 15:52 32.18986 -81.20060 1127 ft 128 kts 179°
2026-05-05 15:54 32.18911 -81.20058 1106 ft 127 kts 179°
2026-05-05 15:54 32.18029 -81.20035 936 ft 127 kts 180°
2026-05-05 15:54 32.17145 -81.20053 828 ft 126 kts 181°
2026-05-05 15:54 32.16267 -81.20057 700 ft 124 kts 175°
2026-05-05 15:55 32.15398 -81.20030 459 ft 126 kts 176°
2026-05-05 15:55 32.14512 -81.20027 264 ft 126 kts 178°
2026-05-05 15:55 32.13643 -81.20017 104 ft 126 kts 178°
2026-05-05 15:55 32.12824 -81.20000 39 ft 94 kts 179°
2026-05-05 15:56 32.12465 -81.20005 43 ft 20 kts 182°
2026-05-05 15:56 32.12309 -81.20005 46 ft 24 kts 179°
2026-05-05 15:56 32.12156 -81.20057 46 ft 24 kts 250°
2026-05-05 15:56 32.12180 -81.20194 53 ft 16 kts 334°
2026-05-05 15:57 32.12298 -81.20197 53 ft 18 kts
2026-05-05 15:57 32.12428 -81.20198 53 ft 19 kts 359°
2026-05-05 15:57 32.12552 -81.20233 50 ft 18 kts 330°
2026-05-05 15:57 32.12669 -81.20309 52 ft 20 kts 334°
2026-05-05 15:58 32.12818 -81.20333 43 ft 25 kts 358°
2026-05-05 15:58 32.12994 -81.20335 51 ft 24 kts
2026-05-05 15:58 32.13158 -81.20328 53 ft 23 kts
2026-05-05 15:58 32.13215 -81.20329 53 ft 24 kts 358°
2026-05-05 15:59 32.13219 -81.20329 53 ft 24 kts 358°
2026-05-05 15:59 32.13396 -81.20332 54 ft 26 kts 360°
2026-05-05 15:59 32.13544 -81.20333 54 ft 16 kts 359°
2026-05-05 15:59 32.13655 -81.20340 54 ft 14 kts 338°
2026-05-05 16:00 32.13671 -81.20452 54 ft 16 kts 269°
2026-05-05 16:00 32.13672 -81.20589 54 ft 16 kts 270°
2026-05-05 16:00 32.13664 -81.20682 52 ft 8 kts 225°
2026-05-05 16:00 32.13621 -81.20714 54 ft 5 kts 214°
2026-05-05 16:01 32.13613 -81.20720 54 ft 0 kts 214°
2026-05-05 16:03 32.17590 -81.20043 862 ft 8 kts 179°
2026-05-05 16:03 32.16667 -81.20061 754 ft 127 kts 180°
2026-05-05 16:03 32.15805 -81.20041 586 ft 128 kts 177°
2026-05-05 16:03 32.14918 -81.20029 365 ft 126 kts 177°
2026-05-05 16:04 32.14051 -81.20022 177 ft 127 kts 178°
2026-05-05 16:04 32.13171 -81.20010 49 ft 115 kts 178°
2026-05-05 16:04 32.13722 -81.20017 115 ft 11 kts 178°
2026-05-05 16:04 32.12911 -81.20002 40 ft 104 kts 179°
2026-05-05 16:05 32.12795 -81.20000 40 ft 91 kts 179°
2026-05-05 16:05 32.13412 -81.20014 69 ft 125 kts 178°
2026-05-05 16:05 32.12681 -81.19999 43 ft 73 kts 180°
2026-05-05 16:05 32.12430 -81.20006 40 ft 21 kts 181°
2026-05-05 16:06 32.12264 -81.20005 46 ft 25 kts 179°
2026-05-05 16:06 32.12151 -81.20102 51 ft 19 kts 268°
2026-05-05 16:06 32.13613 -81.20720 53 ft 0 kts 214°
2026-05-05 16:07 32.13612 -81.20721 54 ft 0 kts 214°
2026-05-05 16:07 32.16132 -81.20052 54 ft 10 kts 176°
2026-05-05 16:07 32.15217 -81.20030 410 ft 125 kts 178°
2026-05-05 16:07 32.14342 -81.20023 237 ft 126 kts 176°
2026-05-05 16:08 32.13462 -81.20014 68 ft 126 kts 178°
2026-05-05 16:08 32.12709 -81.19999 43 ft 78 kts 180°
2026-05-05 16:08 32.12438 -81.20006 43 ft 20 kts 181°
2026-05-05 16:08 32.13909 -81.20020 151 ft 127 kts 178°
2026-05-05 16:09 32.14802 -81.20029 324 ft 127 kts 177°
2026-05-05 16:09 32.13920 -81.20020 153 ft 127 kts 178°
2026-05-05 16:09 32.13066 -81.20007 47 ft 111 kts 178°
2026-05-05 16:09 32.14146 -81.20022 199 ft 127 kts 178°
2026-05-05 16:10 32.13272 -81.20012 53 ft 119 kts 178°
2026-05-05 16:10 32.15227 -81.20029 419 ft 112 kts 178°
2026-05-05 16:10 32.14410 -81.20025 242 ft 127 kts 176°
2026-05-05 16:10 32.13526 -81.20017 89 ft 123 kts 177°
2026-05-05 16:11 32.12762 -81.20008 42 ft 101 kts 179°
2026-05-05 16:11 32.12152 -81.20124 52 ft 11 kts 274°
2026-05-05 16:12 32.12214 -81.20198 52 ft 9 kts 359°
2026-05-05 16:12 32.12224 -81.20198 51 ft 3 kts 359°
2026-05-05 16:13 32.18273 -81.20025 913 ft 119 kts 179°
2026-05-05 16:13 32.17439 -81.20046 768 ft 120 kts 180°
2026-05-05 16:13 32.16614 -81.20044 634 ft 120 kts 176°
2026-05-05 16:14 32.14882 -81.20028 307 ft 122 kts 177°
2026-05-05 16:14 32.13233 -81.20013 59 ft 111 kts 178°
2026-05-05 16:15 32.12237 -81.20002 47 ft 23 kts 183°
2026-05-05 16:15 32.18604 -81.20034 988 ft 111 kts 175°
2026-05-05 16:16 32.13369 -81.20013 72 ft 116 kts 177°
2026-05-05 16:16 32.12951 -81.20004 42 ft 100 kts 179°
2026-05-05 16:17 32.12520 -81.20007 43 ft 73 kts 179°
2026-05-05 16:17 32.12225 -81.20002 47 ft 19 kts 183°